GSAT0210 (GALILEO 13)

Last updated on Thu Jul 03 2025 00:02:33 GMT+0000 (Coordinated Universal Time)

1 41550U 16030B 25183.44960380 .00000034 00000+0 00000+0 0 9993 2 41550 55.2086 231.3110 0004305 235.1969 124.8387 1.70474128 56706
UTC large
Height (km)
Speed (km/s)
/
Latitude / Longitude
Inclination (degrees)
Orbital Period (minutes)
Azimuth
Elevation
Range (km)
Doppler Factor

Next 0 passes for location: London (51.5072 / 0.1276)

Sorry there are no passes over London.